Location: ????????
(41.2031°N, 22.5756°E)
Time: 15:07:07
(UTC+00:00)

SL-24 R/B - Pass Details

Date: 01 December 2020
Orbit: 505 x 1003 km, 97.4° (Epoch: 20 January)

Event Time Altitude Azimuth Distance (km) Brightness Sun altitude
Exits shadow 16:09:39 16° 42° (NE) 1,411 5.4 -12.6°
Maximum altitude 16:12:01 30° 96° (E) 926 4.5 -13.0°
Drops below altitude 10° 16:15:15 10° 160° (SSE) 1,711 6.3 -13.6°
Sets 16:17:29 0° 171° (S) 2,598 7.4 -14.0°
